Regional Weather Roundup
Issued by NWS

Home | Current Version | Previous Version | Graphics & Text | Print | Product List | Glossary Off
Versions: 1 2 3 4 5 6 7 8 9 10 11 12 13 14 15 16 17 18 19 20 21 22 23 24 25 26 27 28 29 30 31 32 33 34 35 36 37 38 39 40 41 42 43 44 45 46 47 48 49 50

000
ASUS43 KTOP 192059
RWRKS

WEATHER ROUNDUP FOR KANSAS
NATIONAL WEATHER SERVICE GOODLAND KS
400 PM CDT SAT AUG 19 2017

NOTE:  "FAIR" INDICATES FEW OR NO CLOUDS BELOW 12,000 FEET WITH NO
SIGNIFICANT WEATHER AND/OR OBSTRUCTIONS TO VISIBILITY.

KSZ001>006-013>018-027>032-041>047-192200-
NORTHWEST KANSAS

CITY           SKY/WX    TMP DP  RH WIND       PRES   REMARKS
GOODLAND       SUNNY     93  57  29 SW15G24   29.93F
HAYS           SUNNY     97  64  33 SE16G24   29.88F HX  99
HILL CITY      SUNNY    100  57  23 S13G23    29.88F HX  99
RUSSELL        SUNNY     97  62  31 S13G21    29.89F HX  98
$$

KSZ061>065-074>080-084>089-192200-
SOUTHWEST KANSAS

CITY           SKY/WX    TMP DP  RH WIND       PRES   REMARKS
DODGE CITY     SUNNY     99  58  25 S17G23    29.94F HX  98
ELKHART          N/A     91  63  39 S13         N/A
GARDEN CITY    SUNNY     94  65  38 S16       29.95F HX  96
GREAT BEND     SUNNY     96  68  39 SE9       29.90F HX 101
LIBERAL        SUNNY     93  65  39 SW15      29.98F HX  95
$$

KSZ066>073-081>083-090>101-192200-
SOUTHEAST KANSAS

CITY           SKY/WX    TMP DP  RH WIND       PRES   REMARKS
CHANUTE        CLOUDY    92  74  55 S5        29.93F HX 101
COFFEYVILLE    SUNNY     92  78  63 S6        29.91F HX 107
HUTCHINSON     SUNNY     97  65  34 S8        29.89F HX  99
MEDICINE LODGE   N/A     97  67  37 S8        29.89F HX 101
NEWTON         MOSUNNY   94  72  48 E6        29.91F HX 102
PARSONS        SUNNY     94  75  54 VRB5      29.93F HX 105
WICHITA INTL   CLOUDY    98  73  44 SE22      29.88F HX 108
WICHITA JABRA  CLOUDY    90  76  63 S5        29.91S HX 101
WINFIELD       SUNNY     94  75  54 S8        29.91F HX 105
$$

KSZ007>012-019>026-033>040-048>060-102>105-192200-
NORTHEAST KANSAS

CITY           SKY/WX    TMP DP  RH WIND       PRES   REMARKS
CONCORDIA      SUNNY     92  70  48 SE10      29.89F HX  97
EMPORIA        CLOUDY    90  75  61 SE13      29.92F HX 100
LAWRENCE       SUNNY     91  68  46 E7        29.92F HX  95
MANHATTAN      SUNNY     93  73  52 SE7       29.89F HX 102
OLATHE IND     SUNNY     91  68  46 S5        29.95F HX  95
OLATHE EXE     SUNNY     89  65  44 S6        29.95S
SALINA         SUNNY    100  60  26 SE10G28   29.88F HX 100
TOPEKA BILLARD SUNNY     93  69  45 SE10      29.91F HX  98
TOPEKA FORBES  SUNNY     93  72  50 SE8       29.93F HX 101
$$




USA.gov is the U.S. government's official web portal to all federal, state and local government web resources and services.